Regional Weather Roundup
Issued by NWS Jackson, KY

Current Version | Previous Version | Text Only | Print | Product List | Glossary On
Versions: 1 2 3 4 5 6 7 8 9 10 11 12 13 14 15 16 17 18 19 20 21 22 23 24 25 26 27 28 29 30 31 32 33 34 35 36 37 38 39 40 41 42 43 44 45 46 47 48 49 50
000
ASUS43 KJKL 271910
RWRJKL

EAST KENTUCKY HOURLY WEATHER ROUNDUP
NATIONAL WEATHER SERVICE JACKSON KY
200 PM EST SAT FEB 27 2021

NOTE: "FAIR" INDICATES FEW OR NO CLOUDS BELOW 12,000 FEET WITH
NO SIGNIFICANT WEATHER AND/OR OBSTRUCTIONS TO VISIBILITY.

* THESE REPORTS ARE NOT UNDER NWS QUALITY CONTROL AND MAY NOT
  REPORT WEATHER SUCH AS PRECIPITATION AND FOG.

KYZ079-080-083-085-087-088-110-112-115-119-120-272000
...EASTERN KENTUCKY...

CITY           SKY/WX    TMP DP  RH WIND       PRES   REMARKS
JACKSON        CLOUDY    55  51  86 CALM      30.13F
LONDON         CLOUDY    55  53  93 N7        30.12F
SOMERSET*      CLOUDY    54  50  87 CALM      30.13F
MONTICELLO*    CLOUDY    54  54 100 N8        30.13F
WILLIAMSBURG*  CLOUDY    57  57 100 CALM      30.13S
MIDDLESBORO*   DRIZZLE   57  57 100 S3        30.14S
HARLAN APT*    CLOUDY    56  56 100 CALM      30.14F VSB 1/2
PIKE CO APT*   LGT RAIN  54  54 100 NW5       30.13F
BIG SANDY APT* CLOUDY    55  55 100 NW3       30.15R
MOREHEAD APT*  CLOUDY    54  48  82 S6G12     30.14F
ASHLAND*       CLOUDY    54  49  83 VRB5      30.12F
$$

KYZ035-036-041-042-044-050-067-078-099-272000
...CENTRAL KENTUCKY...

CITY           SKY/WX    TMP DP  RH WIND       PRES   REMARKS
MT STERLING*   CLOUDY    54  48  82 CALM      30.14F
FLEMING/MASON* CLOUDY    50  47  88 SW7       30.14F
DANVILLE*      CLOUDY    52  46  82 CALM      30.13F
RICHMOND*      CLOUDY    54  52  94 CALM      30.12F
LEXINGTON      PTSUNNY   51  46  83 S8        30.11F
FRANKFORT      PTSUNNY   54  46  74 VRB5      30.11F
LOUISVILLE     PTSUNNY   56  45  66 SE7       30.11F
LEBANON*       CLOUDY    54  52  94 CALM      30.12F
GLASGOW*       CLOUDY    55  51  86 E5        30.11F
BOWLING GREEN  CLOUDY    54  49  83 E6        30.10F
$$

KYZ091>093-OHZ055-061-077-WVZ005-015-034-035-042-272000
...SOUTHERN OHIO/WEST VIRGINIA...

CITY           SKY/WX    TMP DP  RH WIND       PRES   REMARKS
COVINGTON      MOSUNNY   56  42  59 VRB3      30.10F
COLUMBUS       PTSUNNY   50  42  74 NW10      30.12R
DAYTON         PTSUNNY   50  39  66 NW7       30.12S
WILMINGTON     PTSUNNY   51  44  77 SW7       30.10F
HUNTINGTON     CLOUDY    55  50  83 VRB5      30.12F
CHARLESTON     CLOUDY    56  52  86 W7        30.12F
PINEVILLE*     CLOUDY    55  54  96 MISG      30.18F
BECKLEY        LGT RAIN  52  52 100 W6        30.13F
BLUEFIELD      LGT RAIN  52  52 100 W9        30.15S
LOGAN CO APT*  CLOUDY    54  54 100 CALM      30.14R
$$

VAZ002-007-008-TNZ017-027-036-066-071-272000
...SOUTHWEST VIRGINIA/EAST TENNESSEE...

CITY           SKY/WX    TMP DP  RH WIND       PRES   REMARKS
WISE*          CLOUDY    54  54 100 SW5       30.16F
JONESVILLE*    CLOUDY    54  54 100 CALM      30.16F
ABINGDON*      DRIZZLE   50  49  95 CALM      30.16S
BRISTOL        CLOUDY    50  48  93 CALM      30.16F
MORRISTOWN*    FOG       55  55 100 CALM      30.12F VSB 3/4
SEVIERVILLE*   CLOUDY    59  59 100 NE5       30.11F
KNOXVILLE      CLOUDY    58  57  97 NW6       30.11F FOG
LAFOLLETTE*    CLOUDY    57  57 100 CALM      30.15F FOG
OAK RIDGE      LGT RAIN  57  56  96 CALM      30.14  FOG
CROSSVILLE     CLOUDY    58  58 100 SE3       30.11F FOG
NASHVILLE      CLOUDY    55  52  89 E6        30.09F
$$

...KEY TO REMARKS...
VSB - VISIBILITY IN MILES
WCI - WIND CHILL INDEX
HX  - HEAT INDEX

$$



USA.gov is the U.S. government's official web portal to all federal, state and local government web resources and services.